Total_Precipitation_Accumulation
2.11 2.15 3.14 3.04 2.79 2.70 2.59 2.57 2.53 2.51 2.44 2.26 2.08 1.99 1.96 1.91 1.79 1.74 1.65 1.65 1.72 1.91 1.97 2.04 2.07 2.02 2.07 2.06 2.02 1.94 1.92 2.02 1.96 1.72 1.65 1.71 1.83 2.07 2.16 2.21 2.17 2.13 2.40
1.66 2.09 3.09 2.96 2.78 2.62 2.51 2.55 2.46 2.29 2.14 1.93 1.85 1.87 1.89 1.81 1.76 1.63 1.57 1.67 1.74 1.84 1.85 1.94 1.97 1.96 1.96 2.00 2.02 2.05 2.02 1.93 1.85 1.75 1.88 1.94 2.09 2.19 2.14 2.13 2.29 2.32 2.40
1.48 1.75 2.35 2.98 2.82 2.59 2.51 2.56 2.48 2.24 1.94 1.72 1.67 1.70 1.68 1.62 1.67 1.68 1.66 1.66 1.73 1.71 1.63 1.81 2.05 2.06 2.00 1.98 2.00 2.02 2.04 1.94 1.92 2.06 2.52 2.85 2.53 2.37 2.10 2.12 2.22 2.12 2.15
1.33 1.52 1.83 2.69 2.64 2.57 2.55 2.36 2.31 2.05 1.74 1.59 1.57 1.56 1.52 1.58 1.77 1.89 1.83 1.79 1.82 1.63 1.48 1.55 1.92 2.06 2.03 1.94 1.78 1.79 1.94 2.03 2.18 2.42 2.76 3.24 3.08 2.75 2.48 2.33 2.27 2.18 2.11
1.33 1.55 2.20 2.76 2.52 2.46 2.34 2.16 2.14 2.01 1.76 1.66 1.61 1.56 1.58 1.74 1.82 1.86 1.94 1.91 1.84 1.69 1.62 1.74 2.10 2.03 1.97 1.88 1.75 1.74 1.92 2.17 2.38 2.24 2.50 2.93 3.33 3.28 2.70 2.44 2.38 2.36 2.38
1.34 1.54 2.16 2.48 2.22 2.10 2.06 2.01 1.92 1.97 1.95 1.74 1.59 1.59 1.73 1.90 2.01 2.06 2.08 1.90 1.86 1.79 1.84 1.96 2.16 2.13 2.05 2.00 1.91 1.78 1.93 2.21 2.11 2.03 2.45 2.83 3.10 3.09 2.55 2.37 2.43 2.54 2.62
1.17 1.28 1.72 2.17 1.97 1.87 1.88 1.89 1.80 1.89 1.98 1.85 1.61 1.70 1.84 1.92 2.08 2.18 2.10 1.92 1.92 1.91 1.99 2.21 2.23 2.26 2.17 2.04 2.06 1.98 1.97 2.00 1.78 2.00 2.44 2.83 2.86 2.70 2.47 2.30 2.30 2.57 2.82
1.21 1.16 1.34 1.77 1.83 1.70 1.74 1.90 1.81 1.80 1.91 1.85 1.73 1.75 1.73 1.85 2.04 2.14 2.09 1.93 1.86 1.94 2.18 2.51 2.47 2.35 2.15 2.08 2.14 2.23 2.18 1.86 1.47 1.59 1.91 2.60 3.10 2.87 2.45 2.17 2.21 2.41 2.68
1.50 1.36 1.23 1.27 1.44 1.55 1.68 1.83 1.80 1.75 1.75 1.68 1.74 1.78 1.85 1.96 2.02 1.99 2.00 1.93 1.91 1.99 2.12 2.36 2.32 2.24 2.19 2.18 2.14 2.22 2.26 2.07 1.67 1.59 1.59 2.37 3.06 2.97 2.43 2.11 2.05 2.28 2.43
1.57 1.44 1.22 1.11 1.13 1.27 1.32 1.53 1.78 1.83 1.76 1.64 1.70 1.81 1.92 1.97 1.97 1.97 1.89 2.02 2.11 2.09 2.22 2.41 2.32 2.18 2.18 2.10 2.07 2.23 2.25 1.93 1.57 1.49 1.74 2.37 3.19 3.23 2.78 2.17 1.93 1.98 2.06
1.33 1.24 1.16 1.11 1.14 1.25 1.29 1.36 1.68 1.76 1.67 1.49 1.46 1.67 1.71 1.59 1.68 1.93 2.05 2.35 2.32 2.32 2.41 2.53 2.49 2.25 2.02 1.96 2.07 2.15 1.97 1.63 1.56 1.61 2.01 2.75 3.21 3.18 2.92 2.42 1.99 1.80 1.76
1.05 0.95 0.93 0.93 1.02 1.14 1.19 1.55 1.83 1.65 1.57 1.34 1.35 1.34 1.43 1.51 1.74 1.77 2.08 2.51 2.41 2.33 2.32 2.46 2.46 2.06 1.60 1.35 1.64 1.73 1.53 1.57 1.60 1.58 2.11 2.89 3.21 3.13 2.81 2.48 2.12 1.89 1.79
0.82 0.74 0.70 0.66 0.67 0.76 0.99 1.35 1.66 1.81 1.82 1.80 1.61 1.43 1.46 1.25 1.21 1.25 1.36 1.56 1.63 1.70 1.66 1.78 1.92 1.62 1.34 1.28 1.32 1.39 1.53 1.49 1.70 1.70 2.19 2.87 3.16 3.22 2.90 2.56 2.24 2.03 1.95
0.78 0.75 0.67 0.63 0.58 0.60 0.68 0.88 1.13 1.31 1.43 1.50 1.41 1.23 1.30 1.20 1.12 1.14 1.18 1.18 1.18 1.28 1.42 1.43 1.55 1.52 1.32 1.21 1.18 1.31 1.38 1.37 1.57 1.87 2.34 2.62 2.97 3.27 3.10 2.73 2.44 2.23 2.18
0.90 0.89 0.80 0.68 0.63 0.63 0.68 0.75 0.83 1.02 1.15 1.18 1.25 1.18 1.15 1.21 1.22 1.17 1.08 1.09 1.02 1.10 1.26 1.38 1.43 1.46 1.47 1.39 1.24 1.35 1.41 1.49 1.58 1.68 1.95 2.29 2.62 3.12 3.45 3.31 2.92 2.59 2.47
1.00 0.95 0.92 0.80 0.76 0.73 0.72 0.73 0.81 0.91 0.97 0.99 0.98 0.98 1.07 1.18 1.18 1.19 1.16 1.20 1.14 1.17 1.30 1.33 1.28 1.40 1.59 1.51 1.33 1.31 1.34 1.41 1.51 1.52 1.65 1.94 2.26 2.57 3.27 3.62 3.47 3.22 3.09
0.96 0.89 0.89 0.89 0.90 0.88 0.84 0.78 0.80 0.90 0.98 0.97 0.93 0.85 0.88 1.00 1.06 1.13 1.16 1.14 1.17 1.31 1.37 1.43 1.25 1.32 1.38 1.37 1.36 1.32 1.24 1.27 1.31 1.35 1.37 1.50 1.70 2.02 2.63 3.24 3.54 3.55 3.52
0.79 0.77 0.85 0.86 0.88 0.92 0.93 0.93 0.95 0.97 1.05 1.00 0.98 0.89 0.85 0.91 1.01 1.16 1.17 1.12 1.13 1.31 1.46 1.54 1.45 1.46 1.45 1.41 1.41 1.38 1.27 1.30 1.22 1.24 1.28 1.34 1.58 1.57 1.97 2.49 2.86 3.08 3.38
0.72 0.72 0.73 0.79 0.78 0.85 0.91 0.96 1.07 1.10 1.13 1.09 1.07 0.98 0.94 1.01 1.10 1.28 1.39 1.37 1.33 1.37 1.41 1.42 1.53 1.58 1.57 1.57 1.46 1.42 1.37 1.30 1.33 1.22 1.25 1.36 1.38 1.50 1.71 1.94 2.17 2.34 2.74
0.70 0.68 0.66 0.72 0.74 0.76 0.88 1.00 1.19 1.31 1.30 1.31 1.21 1.13 1.15 1.30 1.44 1.58 1.58 1.65 1.68 1.60 1.61 1.58 1.64 1.63 1.56 1.64 1.49 1.36 1.34 1.26 1.39 1.46 1.39 1.44 1.45 1.45 1.80 2.00 1.96 1.84 2.21
0.64 0.65 0.64 0.62 0.70 0.74 0.79 0.93 1.16 1.45 1.57 1.66 1.57 1.37 1.31 1.44 1.72 1.98 1.94 2.00 2.06 1.99 1.95 1.95 2.19 2.13 1.85 1.66 1.77 1.61 1.44 1.31 1.48 1.56 1.51 1.60 1.69 1.81 2.03 2.05 1.87 1.70 1.64
0.52 0.58 0.60 0.58 0.65 0.71 0.76 0.94 1.12 1.28 1.29 1.45 1.57 1.53 1.45 1.43 1.59 1.77 2.07 2.20 2.16 2.28 2.39 2.37 2.74 2.88 2.38 1.93 2.05 2.31 2.04 1.83 1.63 1.50 1.56 1.63 1.77 2.00 2.11 1.99 1.81 1.61 1.49
0.43 0.42 0.46 0.49 0.56 0.67 0.81 1.03 1.27 1.50 1.57 1.59 1.50 1.58 1.59 1.49 1.55 1.69 1.85 2.00 2.04 2.19 2.37 2.49 2.82 3.36 3.11 2.43 2.24 2.69 2.47 2.24 2.11 1.79 1.63 1.63 1.70 1.98 2.25 2.19 1.96 1.73 1.55
0.39 0.38 0.41 0.50 0.63 0.82 1.02 1.24 1.49 1.70 1.76 1.62 1.61 1.64 1.53 1.44 1.43 1.56 1.69 1.81 1.94 2.00 2.17 2.27 2.41 3.00 3.40 3.05 2.74 2.44 2.12 2.08 2.28 2.28 1.91 1.71 1.70 1.84 2.06 2.06 1.94 1.88 1.74
0.46 0.48 0.53 0.71 0.93 1.18 1.38 1.64 1.93 1.90 1.79 1.69 1.64 1.63 1.57 1.54 1.51 1.52 1.69 1.75 1.77 1.86 2.00 2.33 2.60 2.91 3.15 3.17 3.15 2.92 2.62 2.34 2.01 2.30 2.36 2.01 1.87 1.83 1.89 1.94 1.85 1.84 1.83
0.74 0.90 1.09 1.34 1.49 1.58 1.70 1.85 1.96 1.90 1.89 1.84 1.66 1.57 1.56 1.61 1.66 1.67 1.72 1.75 1.72 1.77 1.90 2.16 2.47 2.70 3.03 3.26 3.22 3.01 2.87 2.75 2.50 2.44 2.31 2.15 2.16 2.01 1.88 1.84 1.70 1.69 1.83